Location: Bouchavesnes-Bergen
(49.9859°N, 2.9203°E)
Time: 00:08:31
(UTC+00:00)

Resurs 1-4 Rocket - Pass Details

Date: 09 March 2021
Orbit: 800 x 814 km, 98.6° (Epoch: 13 April)

Event Time Altitude Azimuth Distance (km) Brightness Sun altitude
Rises 03:33:39 0° 3° (N) 3,353 5.7 -26.0°
Reaches altitude 10° 03:37:10 10° 339° (NNW) 2,416 4.6 -25.5°
Enters shadow 03:38:35 13° 324° (NW) 2,208 4.3 -25.3°
